EA4BPO Weather Reports


Display with metric or nautical units.
time (UTC)temp
F
wind
direction
speed
MPH
gust
MPH
rain 1hr
in
rain 24hr
in
rain mn
in
humidity
%
barometer
mb
20260509205005 51 250 11.0 25.0 0.06 0.36 0.36 92 1011.8
20260509204504 51 253 14.0 27.0 0.05 0.35 0.35 90 1011.7
20260509204004 53 238 11.0 27.0 0.03 0.33 0.33 86 1011.6
20260509203504 56 193 10.0 17.0 0.00 0.30 0.30 79 1011.0
20260509203025 56 189 10.0 17.0 0.00 0.30 0.30 79 1010.4
20260509202504 56 190 9.0 16.0 0.00 0.30 0.30 79 1010.3
20260509202004 56 192 9.0 16.0 0.00 0.30 0.30 80 1010.4
20260509201504 56 190 8.0 15.0 0.00 0.30 0.30 80 1010.2
20260509201004 56 185 7.0 13.0 0.00 0.30 0.30 80 1009.8
20260509200504 56 186 8.0 15.0 0.00 0.30 0.30 81 1009.8
20260509200004 56 184 9.0 19.0 0.00 0.30 0.30 81 1009.7
20260509195504 56 181 9.0 19.0 0.00 0.30 0.30 80 1009.8
20260509195004 57 185 9.0 16.0 0.00 0.30 0.30 80 1009.7
20260509194504 57 191 9.0 16.0 0.00 0.30 0.30 79 1009.7
20260509194025 57 188 9.0 16.0 0.00 0.30 0.30 78 1009.5
20260509193504 57 176 7.0 15.0 0.00 0.30 0.30 77 1009.2
20260509193004 57 181 7.0 15.0 0.00 0.30 0.30 76 1009.1
20260509192504 58 188 7.0 15.0 0.00 0.30 0.30 75 1009.0
20260509192004 58 193 8.0 17.0 0.00 0.30 0.30 74 1009.1
20260509191504 58 195 9.0 18.0 0.00 0.30 0.30 73 1009.1
20260509191004 58 191 9.0 18.0 0.00 0.30 0.30 74 1008.9
20260509190504 58 186 7.0 16.0 0.00 0.30 0.30 76 1008.7
20260509190025 58 187 7.0 15.0 0.00 0.30 0.30 78 1009.0
20260509185525 58 179 6.0 15.0 0.00 0.30 0.30 79 1008.5
20260509185025 58 182 6.0 14.0 0.00 0.30 0.30 81 1008.8
20260509184504 58 182 6.0 14.0 0.00 0.30 0.30 81 1008.9
20260509184004 59 167 7.0 15.0 0.00 0.30 0.30 81 1008.8
20260509183525 59 162 9.0 15.0 0.00 0.30 0.30 81 1008.6
20260509183004 59 161 9.0 15.0 0.00 0.30 0.30 82 1008.6
20260509182504 59 164 8.0 15.0 0.00 0.30 0.30 82 1008.7
20260509182004 59 166 8.0 13.0 0.00 0.30 0.30 82 1008.7
20260509181504 59 167 8.0 15.0 0.00 0.30 0.30 83 1008.9
20260509181004 59 167 8.0 17.0 0.00 0.30 0.30 83 1008.7
20260509180525 59 169 8.0 17.0 0.00 0.30 0.30 84 1009.0
20260509180025 59 170 8.0 17.0 0.00 0.30 0.30 84 1008.8
20260509175504 59 178 7.0 17.0 0.00 0.30 0.30 83 1008.7
20260509175004 59 185 6.0 13.0 0.00 0.30 0.30 84 1008.7
20260509174504 59 185 7.0 13.0 0.00 0.30 0.30 85 1008.9
20260509174025 59 184 6.0 11.0 0.00 0.30 0.30 86 1008.7
20260509173504 59 173 4.0 9.0 0.00 0.30 0.30 87 1008.8
20260509173004 58 166 3.0 7.0 0.01 0.30 0.30 87 1009.0
20260509172504 58 170 2.0 11.0 0.04 0.30 0.30 88 1009.0
20260509172004 57 175 3.0 11.0 0.08 0.30 0.30 90 1009.0
20260509171504 56 179 5.0 10.0 0.08 0.30 0.30 89 1008.6
20260509171004 56 183 6.0 11.0 0.08 0.30 0.30 89 1008.8
20260509170525 55 187 6.0 14.0 0.08 0.30 0.30 90 1008.8
20260509170004 55 186 7.0 14.0 0.08 0.30 0.30 90 1008.8
20260509165504 54 185 6.0 14.0 0.08 0.30 0.30 90 1009.1
20260509165004 55 184 6.0 13.0 0.08 0.30 0.30 91 1008.7
20260509164525 54 180 7.0 13.0 0.08 0.30 0.30 92 1008.8
20260509164004 53 185 7.0 19.0 0.08 0.30 0.30 93 1008.7
20260509163504 53 182 10.0 25.0 0.08 0.30 0.30 92 1008.9
20260509163004 55 176 11.0 25.0 0.07 0.29 0.29 91 1008.8
20260509162504 58 171 6.0 25.0 0.04 0.26 0.26 87 1009.0
20260509162025 59 165 2.0 6.0 0.00 0.22 0.22 81 1008.8
20260509161504 60 154 1.0 4.0 0.00 0.22 0.22 79 1008.7
20260509161004 60 143 2.0 6.0 0.00 0.22 0.22 78 1008.5
20260509160504 61 133 1.0 6.0 0.00 0.22 0.22 77 1008.6
20260509160004 62 129 1.0 3.0 0.00 0.22 0.22 76 1008.4
20260509155504 61 127 1.0 3.0 0.00 0.22 0.22 76 1008.5
20260509155004 62 83 1.0 3.0 0.01 0.22 0.22 73 1008.7
20260509154504 61 65 1.0 3.0 0.01 0.22 0.22 77 1008.6
20260509154004 61 23 1.0 3.0 0.01 0.22 0.22 76 1008.5
20260509153525 60 53 1.0 2.0 0.01 0.22 0.22 79 1008.6
20260509153004 59 134 1.0 3.0 0.01 0.22 0.22 80 1008.6
20260509152504 59 158 1.0 6.0 0.01 0.22 0.22 82 1008.9
20260509152004 58 141 2.0 6.0 0.01 0.22 0.22 83 1008.6
20260509151504 59 161 1.0 4.0 0.01 0.22 0.22 83 1008.8
20260509151004 59 230 2.0 6.0 0.01 0.22 0.22 85 1009.0
20260509150504 58 223 3.0 7.0 0.01 0.22 0.22 86 1009.1
20260509150004 58 222 3.0 10.0 0.01 0.22 0.22 86 1009.1
20260509145525 58 214 4.0 10.0 0.01 0.22 0.22 85 1009.1
20260509145004 58 208 4.0 9.0 0.00 0.21 0.21 82 1009.5
20260509144525 59 195 5.0 9.0 0.00 0.21 0.21 79 1009.5
20260509144004 58 180 5.0 10.0 0.00 0.21 0.21 78 1009.4
20260509143525 58 156 5.0 10.0 0.00 0.21 0.21 78 1009.2
20260509143004 59 140 3.0 8.0 0.00 0.21 0.21 79 1008.9
20260509142504 61 140 2.0 8.0 0.00 0.21 0.21 76 1009.1
20260509142004 61 145 2.0 8.0 0.00 0.21 0.21 78 1008.9
20260509141504 60 145 2.0 9.0 0.00 0.21 0.21 78 1009.0
20260509141004 60 141 4.0 10.0 0.00 0.21 0.21 79 1009.4
20260509140504 58 149 4.0 10.0 0.00 0.21 0.21 79 1009.5
20260509140005 60 160 2.0 6.0 0.00 0.21 0.21 79 1009.5
20260509135504 59 145 1.0 6.0 0.00 0.21 0.21 83 1009.4
20260509135004 58 113 2.0 6.0 0.02 0.21 0.21 83 1009.6
20260509134504 56 96 2.0 6.0 0.07 0.21 0.21 85 1009.7
20260509134004 55 95 1.0 4.0 0.13 0.21 0.21 91 1009.5
20260509133504 54 106 1.0 3.0 0.18 0.21 0.21 93 1009.6
20260509133004 55 113 1.0 3.0 0.19 0.21 0.21 94 1009.7
20260509132504 54 110 1.0 3.0 0.20 0.21 0.21 94 1009.8
20260509132004 54 90 1.0 3.0 0.20 0.21 0.21 95 1009.7
20260509131525 54 135 1.0 6.0 0.20 0.21 0.21 95 1009.7
20260509131004 53 184 3.0 10.0 0.20 0.21 0.21 95 1010.0
20260509130504 54 197 5.0 11.0 0.20 0.21 0.21 95 1010.3
20260509130004 54 205 5.0 11.0 0.20 0.21 0.21 94 1010.2
20260509125504 54 201 3.0 8.0 0.20 0.21 0.21 94 1010.3
20260509125004 54 186 2.0 4.0 0.18 0.19 0.19 93 1010.2
20260509124504 54 211 3.0 7.0 0.13 0.14 0.14 92 1010.2
20260509124004 55 219 5.0 9.0 0.07 0.08 0.08 91 1010.4
20260509123504 55 227 4.0 9.0 0.02 0.03 0.03 89 1010.0
20260509123025 56 260 4.0 8.0 0.01 0.02 0.02 87 1009.9
20260509122525 56 264 5.0 9.0 0.00 0.01 0.01 85 1009.7
20260509122004 56 269 5.0 10.0 0.00 0.01 0.01 84 1009.7
20260509121504 56 271 5.0 10.0 0.00 0.01 0.01 85 1009.6
20260509121025 56 271 4.0 8.0 0.00 0.01 0.01 85 1009.6
20260509120504 56 266 5.0 10.0 0.00 0.01 0.01 86 1009.9
20260509120004 56 257 6.0 10.0 0.00 0.01 0.01 86 1009.6
20260509115504 57 269 5.0 9.0 0.00 0.01 0.01 85 1009.5
20260509115004 56 276 4.0 8.0 0.00 0.01 0.01 86 1009.4
20260509114504 56 264 5.0 9.0 0.00 0.01 0.01 87 1009.4
20260509114004 56 258 4.0 9.0 0.00 0.01 0.01 87 1009.6
20260509113504 56 253 4.0 7.0 0.00 0.01 0.01 87 1009.8
20260509113025 56 256 4.0 7.0 0.01 0.01 0.01 88 1009.6
20260509112504 56 236 3.0 7.0 0.01 0.01 0.01 87 1009.8
20260509112004 56 222 3.0 7.0 0.01 0.01 0.01 86 1009.9
20260509111504 56 220 4.0 9.0 0.01 0.01 0.01 86 1009.7
20260509111004 56 200 6.0 9.0 0.01 0.01 0.01 86 1009.6
20260509110504 56 201 5.0 9.0 0.01 0.01 0.01 85 1009.7
20260509110004 56 210 4.0 9.0 0.01 0.01 0.01 85 1009.8
20260509105504 56 204 3.0 7.0 0.01 0.01 0.01 84 1009.7
20260509105004 57 208 4.0 8.0 0.01 0.02 0.01 84 1009.8
20260509104504 57 201 4.0 8.0 0.01 0.02 0.01 84 1009.8
20260509104004 56 194 3.0 7.0 0.01 0.02 0.01 82 1009.7
20260509103504 56 202 4.0 10.0 0.01 0.02 0.01 82 1009.5
20260509103004 56 198 5.0 10.0 0.00 0.01 0.00 81 1009.7
20260509102525 56 192 6.0 10.0 0.00 0.01 0.00 81 1009.8
20260509102004 56 185 7.0 10.0 0.00 0.01 0.00 82 1009.8
20260509101504 56 187 5.0 9.0 0.00 0.02 0.00 83 1010.0
20260509101004 56 173 6.0 15.0 0.00 0.05 0.00 84 1009.8
20260509100525 55 160 8.0 15.0 0.00 0.05 0.00 84 1009.7
20260509100005 56 162 7.0 15.0 0.00 0.05 0.00 83 1009.7
20260509095525 56 168 6.0 15.0 0.00 0.05 0.00 82 1009.8
20260509095004 57 171 6.0 13.0 0.00 0.05 0.00 80 1009.6
20260509094525 57 172 7.0 14.0 0.00 0.05 0.00 79 1009.7
20260509094004 57 172 7.0 14.0 0.00 0.05 0.00 79 1009.7
20260509093504 58 157 7.0 11.0 0.00 0.05 0.00 79 1009.7
20260509093004 57 163 7.0 15.0 0.00 0.05 0.00 79 1009.5
20260509092504 57 171 7.0 15.0 0.00 0.05 0.00 79 1009.5
20260509092004 57 168 7.0 15.0 0.00 0.05 0.00 80 1009.4
20260509091504 57 168 8.0 16.0 0.00 0.05 0.00 80 1009.5
20260509091025 56 162 8.0 16.0 0.00 0.05 0.00 81 1009.5
20260509090525 56 159 10.0 19.0 0.00 0.05 0.00 81 1009.7
20260509090004 56 155 11.0 19.0 0.00 0.05 0.00 81 1009.6
20260509085504 56 153 10.0 18.0 0.00 0.05 0.00 80 1009.5
20260509085004 56 151 8.0 17.0 0.00 0.05 0.00 80 1009.7
20260509084504 57 150 7.0 15.0 0.00 0.05 0.00 81 1009.5
20260509084004 56 155 9.0 17.0 0.00 0.05 0.00 82 1009.4
20260509083504 55 158 7.0 17.0 0.00 0.05 0.00 82 1009.5
20260509083004 56 160 6.0 13.0 0.00 0.05 0.00 83 1009.7
20260509082504 56 149 5.0 10.0 0.00 0.05 0.00 83 1009.7
20260509082004 55 139 5.0 10.0 0.00 0.05 0.00 83 1009.6
20260509081504 56 133 4.0 10.0 0.00 0.05 0.00 83 1009.6
20260509081004 55 126 5.0 9.0 0.00 0.05 0.00 84 1009.6
20260509080504 55 126 5.0 10.0 0.00 0.05 0.00 85 1009.6
20260509080004 55 135 5.0 10.0 0.00 0.05 0.00 85 1009.4
20260509075504 55 137 5.0 10.0 0.00 0.05 0.00 85 1009.6
20260509075004 55 141 5.0 10.0 0.00 0.05 0.00 86 1009.7
20260509074525 54 148 6.0 10.0 0.00 0.05 0.00 86 1009.6
20260509074004 54 147 6.0 10.0 0.00 0.05 0.00 86 1009.8
20260509073504 54 152 5.0 9.0 0.00 0.05 0.00 87 1009.7
20260509073004 54 165 4.0 7.0 0.00 0.05 0.00 87 1009.6
20260509072504 54 166 4.0 8.0 0.00 0.05 0.00 87 1009.7
20260509072004 54 158 5.0 8.0 0.00 0.05 0.00 87 1009.4
20260509071504 54 166 4.0 8.0 0.00 0.05 0.00 87 1009.4
20260509071004 54 165 4.0 8.0 0.00 0.05 0.00 88 1009.7
20260509070504 54 160 4.0 7.0 0.00 0.05 0.00 88 1009.6
20260509070025 54 162 4.0 7.0 0.00 0.05 0.00 88 1009.7
20260509065504 54 177 4.0 7.0 0.00 0.05 0.00 88 1009.8
20260509065004 54 191 4.0 9.0 0.00 0.05 0.00 87 1009.8
20260509064504 54 196 4.0 9.0 0.00 0.05 0.00 87 1009.9
20260509064004 54 196 4.0 6.0 0.00 0.05 0.00 86 1010.0
20260509063504 54 193 3.0 6.0 0.00 0.05 0.00 86 1009.8
20260509063004 54 176 4.0 8.0 0.00 0.05 0.00 86 1009.6
20260509062504 54 169 4.0 8.0 0.00 0.05 0.00 86 1009.4
20260509062004 54 162 5.0 10.0 0.00 0.05 0.00 86 1009.6
20260509061504 54 145 4.0 10.0 0.00 0.05 0.00 86 1009.5
20260509061004 54 150 4.0 9.0 0.00 0.05 0.00 86 1009.2
20260509060504 54 173 6.0 14.0 0.00 0.05 0.00 86 1009.5
20260509060004 54 175 7.0 14.0 0.00 0.05 0.00 85 1009.6
20260509055504 54 176 6.0 11.0 0.00 0.05 0.00 86 1009.7
20260509055004 54 182 7.0 16.0 0.00 0.05 0.00 86 1009.7
20260509054504 54 177 6.0 16.0 0.00 0.05 0.00 86 1009.9
20260509054004 54 160 5.0 9.0 0.00 0.05 0.00 86 1009.6
20260509053504 54 160 5.0 11.0 0.00 0.05 0.00 86 1009.6
20260509053004 54 167 5.0 11.0 0.00 0.05 0.00 86 1009.6
20260509052504 54 169 5.0 10.0 0.00 0.05 0.00 86 1009.6
20260509052025 54 165 5.0 10.0 0.00 0.05 0.00 86 1009.6
20260509051504 54 156 5.0 13.0 0.00 0.05 0.00 86 1009.5
20260509051025 54 152 5.0 13.0 0.00 0.05 0.00 86 1009.4
20260509050504 54 150 5.0 11.0 0.00 0.05 0.00 87 1009.1
20260509050025 54 149 6.0 10.0 0.00 0.05 0.00 87 1008.7
20260509045504 54 134 5.0 10.0 0.00 0.05 0.00 87 1008.9
20260509045004 54 129 5.0 10.0 0.00 0.05 0.00 87 1008.7
20260509044504 54 136 5.0 9.0 0.00 0.05 0.00 87 1008.7
20260509044004 54 129 4.0 10.0 0.00 0.05 0.00 86 1008.6
20260509043525 54 127 3.0 10.0 0.00 0.05 0.00 86 1008.4
20260509043004 54 133 3.0 8.0 0.00 0.05 0.00 87 1008.7
20260509042504 54 135 3.0 8.0 0.00 0.05 0.00 87 1008.5
20260509042004 54 134 2.0 8.0 0.00 0.05 0.00 87 1008.7
20260509041504 54 120 3.0 8.0 0.00 0.05 0.00 87 1008.7
20260509041004 54 98 4.0 10.0 0.00 0.05 0.00 87 1008.5
20260509040504 54 103 5.0 10.0 0.00 0.05 0.00 87 1008.3
20260509040004 54 105 4.0 10.0 0.00 0.05 0.00 87 1008.5
20260509035504 54 85 2.0 7.0 0.00 0.05 0.00 87 1008.7
20260509035004 54 91 3.0 6.0 0.00 0.05 0.00 87 1008.7
20260509034504 54 99 3.0 6.0 0.00 0.05 0.00 87 1008.8
20260509034004 54 114 3.0 6.0 0.00 0.05 0.00 86 1009.0
20260509033504 54 129 3.0 6.0 0.00 0.05 0.00 86 1009.5
20260509033004 54 147 3.0 6.0 0.00 0.05 0.00 85 1009.4
20260509032504 55 171 4.0 9.0 0.00 0.05 0.00 85 1009.5
20260509032025 55 171 5.0 11.0 0.00 0.05 0.00 85 1009.5
20260509031525 55 160 5.0 11.0 0.00 0.05 0.00 84 1009.6
20260509031004 55 150 4.0 9.0 0.00 0.05 0.00 84 1009.9
20260509030504 55 148 4.0 9.0 0.00 0.05 0.00 84 1009.6
20260509030004 55 158 4.0 9.0 0.00 0.05 0.00 84 1009.5
20260509025504 55 159 4.0 9.0 0.00 0.05 0.00 84 1009.7
20260509025004 55 153 4.0 9.0 0.00 0.05 0.00 84 1009.8
20260509024504 55 166 5.0 9.0 0.00 0.05 0.00 84 1009.6
20260509024004 55 161 5.0 9.0 0.00 0.05 0.00 84 1009.6
20260509023504 55 146 5.0 10.0 0.00 0.05 0.00 84 1009.6
20260509023025 55 144 6.0 11.0 0.00 0.05 0.00 84 1009.4
20260509022504 55 144 5.0 11.0 0.00 0.05 0.00 85 1009.5
20260509022004 55 153 4.0 10.0 0.00 0.05 0.00 85 1009.7
20260509021504 54 148 4.0 8.0 0.00 0.05 0.00 86 1009.6
20260509021004 54 145 3.0 8.0 0.00 0.05 0.00 86 1009.6
20260509020525 54 145 3.0 6.0 0.00 0.05 0.00 86 1009.5
20260509020004 54 137 4.0 8.0 0.00 0.05 0.00 86 1009.6
20260509015525 54 134 4.0 8.0 0.00 0.05 0.00 86 1009.6
20260509015004 54 144 4.0 9.0 0.00 0.05 0.00 86 1009.7
20260509014504 55 148 4.0 9.0 0.00 0.05 0.00 86 1010.1
20260509014004 55 147 5.0 9.0 0.00 0.05 0.00 86 1009.9
20260509013504 55 145 4.0 9.0 0.00 0.05 0.00 86 1009.7
20260509013025 55 139 4.0 9.0 0.00 0.05 0.00 86 1009.7
20260509012504 55 141 4.0 9.0 0.00 0.05 0.00 86 1009.9
20260509012004 55 146 3.0 8.0 0.00 0.05 0.00 86 1009.7
20260509011504 55 143 3.0 8.0 0.00 0.05 0.00 86 1010.1
20260509011004 55 148 4.0 8.0 0.00 0.05 0.00 86 1009.8
20260509010504 55 146 3.0 9.0 0.00 0.05 0.00 86 1009.8
20260509010004 55 139 3.0 9.0 0.00 0.05 0.00 85 1010.0
20260509005504 55 133 3.0 10.0 0.00 0.05 0.00 85 1010.1
20260509005004 55 127 3.0 10.0 0.00 0.05 0.00 85 1010.2
20260509004525 55 114 2.0 8.0 0.00 0.05 0.00 85 1009.9
20260509004004 55 104 2.0 8.0 0.00 0.05 0.00 85 1010.1
20260509003504 54 88 3.0 8.0 0.00 0.05 0.00 86 1010.1
20260509003004 54 82 3.0 8.0 0.00 0.05 0.00 86 1010.1
20260509002504 54 85 3.0 8.0 0.00 0.05 0.00 86 1010.3
20260509002004 54 72 3.0 8.0 0.00 0.05 0.00 87 1010.0
20260509001504 54 60 3.0 7.0 0.00 0.05 0.00 87 1010.1
20260509001004 54 61 3.0 7.0 0.00 0.05 0.00 88 1010.1
20260509000504 54 63 3.0 6.0 0.00 0.05 0.00 88 1010.3
20260509000004 54 57 3.0 8.0 0.00 0.05 0.00 87 1010.2
20260508235525 54 62 3.0 8.0 0.00 0.05 0.00 87 1010.4
20260508235004 54 56 4.0 8.0 0.00 0.05 0.00 87 1010.3
20260508234525 54 54 4.0 8.0 0.00 0.05 0.00 86 1010.3
20260508234004 54 58 4.0 8.0 0.00 0.05 0.00 86 1010.3
20260508233504 54 45 4.0 8.0 0.00 0.05 0.00 86 1010.2
20260508233004 54 49 4.0 8.0 0.00 0.05 0.00 85 1010.3
20260508232504 55 62 4.0 8.0 0.00 0.05 0.00 85 1010.3
20260508232004 55 55 3.0 8.0 0.00 0.05 0.00 84 1010.2
20260508231525 55 49 3.0 8.0 0.00 0.05 0.00 84 1010.2
20260508231003 55 50 4.0 8.0 0.00 0.05 0.00 84 1010.2
20260508230504 55 46 4.0 8.0 0.00 0.05 0.00 84 1010.3
20260508230004 55 48 4.0 9.0 0.00 0.05 0.00 83 1010.3
20260508225504 55 51 5.0 11.0 0.00 0.05 0.00 83 1010.4
20260508225003 56 46 5.0 11.0 0.00 0.05 0.00 82 1010.3
20260508224503 56 43 4.0 9.0 0.00 0.05 0.00 82 1010.4
20260508224004 56 37 3.0 7.0 0.00 0.05 0.00 82 1010.3
20260508223504 56 40 3.0 7.0 0.00 0.05 0.00 82 1010.3
20260508223004 56 47 3.0 8.0 0.00 0.05 0.00 82 1010.5
20260508222504 56 55 3.0 8.0 0.00 0.05 0.00 82 1010.5
20260508222004 56 57 4.0 7.0 0.00 0.05 0.00 82 1010.3
20260508221504 56 49 4.0 9.0 0.00 0.05 0.00 82 1010.4
20260508221025 55 44 5.0 9.0 0.00 0.05 0.00 82 1010.6
20260508220504 56 43 4.0 9.0 0.00 0.05 0.00 82 1010.5
20260508220004 56 42 3.0 9.0 0.00 0.05 0.00 82 1010.6
20260508215504 56 39 3.0 8.0 0.00 0.05 0.05 81 1010.6
20260508215003 56 44 4.0 8.0 0.00 0.05 0.05 80 1010.6
20260508214504 56 48 3.0 7.0 0.00 0.05 0.05 79 1010.5
20260508214003 56 48 3.0 7.0 0.00 0.05 0.05 78 1010.4
20260508213504 57 51 3.0 7.0 0.00 0.05 0.05 77 1010.6
20260508213004 57 54 3.0 7.0 0.00 0.05 0.05 75 1010.6
20260508212525 57 53 3.0 8.0 0.00 0.05 0.05 74 1010.7
20260508212004 57 49 3.0 8.0 0.00 0.05 0.05 73 1010.6
20260508211504 57 47 3.0 7.0 0.00 0.05 0.05 73 1010.4
20260508211025 57 51 3.0 7.0 0.00 0.05 0.05 72 1010.7
20260508210503 57 53 4.0 7.0 0.00 0.05 0.05 72 1010.4
20260508210024 57 59 3.0 7.0 0.00 0.05 0.05 72 1010.5
20260508205503 58 62 3.0 7.0 0.00 0.05 0.05 72 1010.3